sat.trackr.live / text

‹ back to catalog

STARLINK-32672

NORAD 62195 · 2024-229D

PAYLOAD ACTIVE UNKNOWN

§ Identity

Operator
Country
US
Launch date
2024-12-04
Launch site
AFETR
Launch vehicle
Mass (kg)
RCS (m²)

Purposes: comms

External: N2YO · Heavens-Above · Gunter

§ Orbital elements

Epoch: 2026-05-25T04:47:41.575200Z

Period
94.27 min
Inclination
42.9986°
Eccentricity
0.0000826
Mean motion
15.27591212 rev/d
Perigee alt
482.4 km
Apogee alt
483.6 km
Semi-major
6,861.2 km
B*
1.4128e-3
RAAN
198.5422°
Arg perigee
256.8518°
Mean anomaly
103.2241°
Rev number
8,226

§ Raw data

STARLINK-326721 62195U 24229D   26145.19978675  .00038834  00000+0  14128-2 0  99952 62195  42.9986 198.5422 0000826 256.8518 103.2241 15.27591212 82261

JSON: /api/v1/satellites/62195 · /tle

For live sub-satellite position, see the globe view (requires WebGL).

§ Visibility from observer

Set your observer location to see the next 7 days of passes ≥ 10°. The values pass through the URL so the page stays shareable.

No JS? Fill the form by hand. The geolocation button needs JavaScript.